Location: Risskov
(56.1972°N, 10.2480°E)
Time: 00:23:48
(UTC+00:00)

GEOS 3 Rocket - Pass Details

Date: 05 July 2020
Orbit: 771 x 848 km, 115.0° (Epoch: 03 August)

Event Time Altitude Azimuth Distance (km) Brightness Sun altitude
Rises 22:31:57 0° 52° (NE) 3,397 7.2 -10.4°
Reaches altitude 10° 22:34:17 10° 48° (NE) 2,468 6.5 -10.4°
Maximum altitude 22:39:33 57° 331° (NNW) 995 4.5 -10.6°
Drops below altitude 10° 22:44:50 10° 255° (WSW) 2,475 6.1 -10.7°
Sets 22:47:11 0° 251° (WSW) 3,408 6.7 -10.8°
